Observations
| Time | Sensor | AQI | SAQ | Temp °C | Hum % | Pres Pa | CO μg/m³ | H₂S μg/m³ | NO μg/m³ | NO₂ μg/m³ | O₃ μg/m³ | SO₂ μg/m³ | CO₂e PPM | VOC PPM | PM1 μg/m³ | PM2.5 μg/m³ | PM4 μg/m³ | PM10 μg/m³ | TPS µm |
|---|---|---|---|---|---|---|---|---|---|---|---|---|---|---|---|---|---|---|---|
| Wednesday 12 August 2026 | |||||||||||||||||||
| 17:04 | Trim Patrick St | 3 | 38.4 | 28 | 69,818 | 0 | 0 | 0 | 13.33 | 94.23 | 24.47 | 7.14 | 15.06 | 16.56 | |||||
| 17:03 | Trim Patrick St | 3 | 38.5 | 28 | 69,808 | 0 | 0 | 0 | 13.36 | 84.98 | 24.3 | 4.57 | 11.02 | 12.12 | |||||
| 17:02 | Trim Patrick St | 3 | 38.6 | 28 | 69,816 | 0 | 0 | 0 | 13.2 | 85.31 | 25.4 | 2.86 | 9.43 | 10.37 | |||||
| 17:01 | Trim Market St | 3 | 38.1 | 28 | 66,937 | 0 | 0 | 0.03 | 14.13 | 85.17 | 2.03 | 0.71 | 5.06 | 5.56 | |||||
| 17:00 | Trim Patrick St | 3 | 38.6 | 29 | 69,806 | 0 | 0 | 0 | 13.34 | 103.36 | 25.42 | 3.71 | 11 | 12.1 | |||||
| 16:59 | Trim Patrick St | 3 | 38.6 | 28 | 69,816 | 0 | 0 | 0 | 13.24 | 94.69 | 26.53 | 3.71 | 11.01 | 12.11 | |||||
| 16:56 | Trim Patrick St | 3 | 38.2 | 29 | 69,770 | 0 | 0 | 0 | 13.11 | 83.41 | 25.46 | 2.86 | 9.34 | 10.27 | |||||
| 16:55 | Trim Market St | 3 | 38.2 | 28 | 66,898 | 0 | 0 | 0 | 15.88 | 87.37 | 1.35 | 2.14 | 5.59 | 6.65 | |||||
| 16:55 | Trim Patrick St | 3 | 38 | 30 | 69,772 | 0 | 6.62 | 0 | 13.19 | 136.74 | 26.02 | 4.57 | 10.9 | 11.99 | |||||
| 16:54 | Trim Market St | 3 | 38.1 | 28 | 66,906 | 0 | 2.33 | 0 | 13.81 | 93.12 | 2.61 | 1.43 | 3.96 | 4.35 | |||||
| 16:54 | Trim Patrick St | 3 | 37.8 | 30 | 69,774 | 0 | 3.66 | 0 | 13 | 99.12 | 25.81 | 3.71 | 10.88 | 11.97 | |||||
| 16:53 | Trim Market St | 3 | 38.1 | 28 | 66,886 | 0 | 2.69 | 0 | 13.24 | 95.29 | 3.09 | 0.71 | 4.5 | 4.95 | |||||
| 16:52 | Trim Market St | 3 | 38 | 28 | 66,896 | 0 | 7.31 | 0 | 15.52 | 91.03 | 2.55 | 2.14 | 5.04 | 5.55 | |||||
| 16:51 | Trim Market St | 3 | 38 | 28 | 66,906 | 0 | 5.52 | 0 | 13.4 | 84.26 | 3.16 | 1.43 | 5.04 | 5.77 | |||||
| 16:51 | Trim Patrick St | 3 | 37.5 | 31 | 69,756 | 0 | 7.55 | 0 | 13 | 134.2 | 25.94 | 2.86 | 9.23 | 10.15 | |||||
| 16:50 | Trim Market St | 3 | 37.9 | 28 | 66,892 | 0 | 8.64 | 0.01 | 14.52 | 101.12 | 2.58 | 2.14 | 5.03 | 7.52 | |||||
| 16:50 | Trim Patrick St | 3 | 37.4 | 30 | 69,760 | 0 | 2.28 | 0 | 12.89 | 91.07 | 25.45 | 3.71 | 10.12 | 11.13 | |||||
| 16:49 | Trim Market St | 3 | 37.9 | 28 | 66,904 | 0 | 8.16 | 0 | 13.63 | 83.6 | 3.21 | 2.85 | 5.02 | 5.53 | |||||
| 16:49 | Trim Patrick St | 3 | 37.3 | 31 | 69,740 | 0 | 1.97 | 0 | 12.88 | 120.75 | 25.88 | 4.57 | 10.85 | 11.93 | |||||
| 16:48 | Trim Market St | 3 | 37.8 | 28 | 66,888 | 0 | 11.85 | 0.06 | 14.24 | 101.32 | 3.32 | 1.43 | 5.03 | 5.54 | |||||